User: anonymous   Login
Location: Oshawa
(43.9000°N, 78.8670°W)
Time: 15:51:33
(UTC-04:00)
Language:

Iridium 46 - Orbit

View from above orbital plane
View from above orbital plane
View from above satellite
View from above satellite

Ground track
Ground track

The orbit data is extracted from the following two-line orbital elements,

1 24905U 97043C   16242.52131051  .00000124  00000-0  37353-4 0  9998
2 24905  86.3987  17.8935 0002067  95.7204 264.4228 14.34217139996027
Epoch (UTC): 29 August 2016 12:30:41
Eccentricity: 0.0002067
inclination: 86.3987°
perigee height: 776 km
apogee height: 779 km
right ascension of ascending node: 17.8935°
argument of perigee: 95.7204°
revolutions per day: 14.34217139
mean anomaly at epoch: 264.4228°
orbit number at epoch: 99602

The dashed part of the orbit path shows where the satellite is in the earth's shadow,  

DLR